Station: Gove Airport  

  Atmospheric Gas Attenuation - ITU Rec 676-11   ----------------- dB/100km -----------------
Date Time Temp RH % AH g/m3 Dew Point Wind Direction Speed kph Gust kph Barometer mB Rainfall Since 9am 24GHz 47GHz 76GHz 122GHz 134GHz 241GHz
10/05 02:30 26.3 89 22.03 24.3 28 37 1010.1 10.8 47.3 45.1 90.3 239.1 268.0 931.3
10/05 02:20 26.4 89 22.16 24.4 22 26 1010.3 10.8 47.5 45.4 90.8 240.5 269.8 937.5
10/05 02:10 26.3 90 22.28 24.5 20 24 1010.6 10.8 47.8 45.7 91.6 242.5 272.2 945.8
10/05 02:00 26.2 91 22.4 24.6 19 26 1010.7 10.8 48.1 46.0 92.3 244.4 274.6 954.0
10/05 01:50 26 92 22.4 24.6 13 15 1010.8 10.8 48.1 46.1 92.6 245.1 275.4 956.6
10/05 01:40 25.8 94 22.63 24.8 24 28 1010.7 10.8 48.6 46.7 94.0 248.9 279.9 972.4
10/05 01:30 25.7 94 22.5 24.7 20 28 1010.6 10.8 48.4 46.5 93.4 247.4 278.1 966.1
10/05 01:20 26 91 22.15 24.4 17 19 1010.9 9.6 47.6 45.6 91.3 241.8 271.3 942.4
10/05 01:10 26 89 21.67 24 24 28 1010.8 9.6 46.5 44.6 88.9 235.4 263.4 915.1
10/05 01:00 26.3 90 22.28 24.5 20 24 1010.9 9.6 47.8 45.7 91.6 242.5 272.3 946.0
10/05 00:50 26.1 91 22.28 24.5 20 22 1010.8 9.6 47.8 45.8 91.8 243.2 273.0 948.5
10/05 00:40 26 93 22.64 24.8 20 24 1011 9.6 48.6 46.6 93.8 248.4 279.4 970.5
10/05 00:30 26.1 92 22.52 24.7 22 28 1011.2 9.6 48.3 46.3 93.1 246.5 277.0 962.5
10/05 00:20 26.6 88 22.15 24.4 22 26 1011.2 9.6 47.5 45.3 90.6 239.9 269.1 935.0
10/05 00:10 27 85 21.88 24.3 20 28 1011.3 9.4 46.9 44.5 88.8 235.1 263.3 914.9
10/05 00:00 27 85 21.88 24.3 22 30 1011.3 9.4 46.9 44.5 88.8 235.1 263.3 914.9
09/05 23:50 27 85 21.88 24.3 20 22 1011.4 9.4 46.9 44.5 88.8 235.1 263.3 915.0
09/05 23:40 26.9 85 21.76 24.2 24 32 1011.5 9.4 46.6 44.3 88.3 233.8 261.8 909.6
09/05 23:30 27 84 21.62 24.1 22 33 1011.3 9.4 46.3 44.0 87.5 231.7 259.1 900.4
09/05 23:20 26.9 86 22.01 24.4 24 28 1011.2 9.4 47.2 44.8 89.5 237.1 265.7 923.4
09/05 23:10 26.9 85 21.76 24.2 20 24 1011.5 9.4 46.6 44.3 88.3 233.8 261.8 909.6
09/05 23:00 27 85 21.88 24.3 20 32 1011.7 9.4 46.9 44.5 88.8 235.1 263.4 915.2
09/05 22:50 26.9 86 22.01 24.4 19 20 1011.9 9.4 47.2 44.9 89.6 237.2 265.9 923.8
09/05 22:40 26.9 87 22.27 24.5 24 28 1011.8 9.4 47.7 45.4 90.9 240.6 270.1 938.4
09/05 22:30 26.9 87 22.27 24.5 24 32 1011.7 9.4 47.7 45.4 90.9 240.6 270.0 938.3
09/05 22:20 26.9 87 22.27 24.5 20 28 1011.8 9.4 47.7 45.4 90.9 240.6 270.1 938.4
09/05 22:10 26.8 89 22.65 24.8 22 24 1011.8 9.4 48.5 46.2 92.9 246.0 276.6 961.2
09/05 22:00 26.8 89 22.65 24.8 20 26 1011.7 9.4 48.5 46.2 92.9 246.0 276.6 961.2
09/05 21:50 26.7 89 22.53 24.7 20 22 1011.7 9.4 48.3 46.0 92.4 244.7 275.0 955.6
09/05 21:40 26.7 89 22.53 24.7 17 19 1011.8 9.4 48.3 46.0 92.4 244.7 275.0 955.7
09/05 21:30 26.6 89 22.4 24.6 19 22 1011.7 9.4 48.0 45.8 91.9 243.3 273.3 949.5
09/05 21:20 26.5 90 22.53 24.7 15 17 1011.6 9.4 48.3 46.1 92.7 245.3 275.8 958.1
09/05 21:10 26.4 91 22.65 24.8 19 20 1011.6 9.4 48.6 46.4 93.4 247.3 278.1 966.3
09/05 21:00 26.2 92 22.65 24.8 17 22 1011.7 9.4 48.6 46.5 93.7 248.0 278.9 968.9
09/05 20:50 25.8 94 22.63 24.8 15 17 1011.8 9.4 48.6 46.7 94.1 249.1 280.1 973.1
09/05 20:40 25.6 96 22.86 24.9 13 15 1011.8 9.4 49.1 47.3 95.5 252.9 284.7 989.1
09/05 20:30 25.5 96 22.73 24.8 11 13 1011.7 9.4 48.9 47.1 95.0 251.4 282.9 982.8
09/05 20:20 25.5 96 22.73 24.8 11 13 1011.7 9.4 48.9 47.1 95.0 251.4 282.9 982.8
09/05 20:10 25.4 96 22.6 24.7 13 13 1011.7 9.4 48.6 46.9 94.4 250.0 281.1 976.5
09/05 20:00 25.4 96 22.6 24.7 13 17 1011.6 9.4 48.6 46.9 94.4 250.0 281.1 976.5
09/05 19:50 25.4 96 22.6 24.7 13 15 1011.5 9.4 48.6 46.9 94.4 249.9 281.1 976.4
09/05 19:40 25.4 96 22.6 24.7 17 19 1011.3 9.4 48.6 46.9 94.4 249.9 281.0 976.3
09/05 19:30 25.3 96 22.47 24.6 17 24 1011.1 9.4 48.3 46.7 93.8 248.4 279.2 969.9
09/05 19:20 25.3 96 22.47 24.6 17 19 1011.1 9.4 48.3 46.7 93.8 248.4 279.2 969.9
09/05 19:10 25.4 95 22.37 24.5 22 24 1011.1 9.2 48.1 46.4 93.2 246.7 277.2 962.8
09/05 19:00 25.6 95 22.62 24.7 17 20 1010.9 7.2 48.6 46.8 94.2 249.4 280.5 974.6
09/05 18:50 25.6 94 22.38 24.6 17 20 1010.7 5.8 48.1 46.3 93.0 246.1 276.5 960.6
09/05 18:40 25.7 93 22.27 24.5 17 19 1010.8 5.4 47.9 46.0 92.3 244.3 274.3 953.0
09/05 18:30 25.8 92 22.15 24.4 17 20 1010.7 5 47.6 45.7 91.5 242.4 272.0 944.8
09/05 18:20 25.7 92 22.03 24.3 15 17 1010.6 5 47.4 45.5 91.1 241.1 270.3 939.1
09/05 18:10 25.8 92 22.15 24.4 17 17 1010.2 5 47.6 45.7 91.5 242.3 271.9 944.5
09/05 18:00 25.9 91 22.03 24.3 20 28 1010.2 5 47.3 45.4 90.8 240.4 269.5 936.4
09/05 17:50 26 90 21.91 24.2 20 24 1010.2 5 47.1 45.1 90.1 238.4 267.2 928.3
09/05 17:40 26.1 90 22.03 24.3 19 20 1009.9 5 47.3 45.2 90.5 239.7 268.7 933.7
09/05 17:30 26.2 91 22.4 24.6 17 20 1009.8 5 48.1 45.9 92.2 244.3 274.4 953.4
09/05 17:20 26.2 91 22.4 24.6 15 19 1009.7 5 48.1 45.9 92.2 244.3 274.4 953.4
09/05 17:10 25.9 91 22.03 24.3 15 17 1009.7 5 47.3 45.4 90.7 240.3 269.4 936.1
09/05 17:00 25.7 92 22.03 24.3 15 20 1009.7 5 47.4 45.5 91.0 240.9 270.2 938.6
09/05 16:50 25.7 92 22.03 24.3 17 20 1009.7 5 47.4 45.5 91.0 240.9 270.2 938.6
09/05 16:40 25.6 94 22.38 24.6 15 19 1009.6 5 48.1 46.2 92.9 245.9 276.3 959.9
09/05 16:30 25.3 95 22.24 24.4 13 22 1009.6 5 47.9 46.1 92.5 245.0 275.1 955.7
09/05 16:20 25.2 95 22.12 24.3 13 13 1009.5 5 47.6 45.9 92.0 243.7 273.5 950.0
09/05 16:10 25.2 95 22.12 24.3 20 24 1009.6 4.6 47.6 45.9 92.1 243.7 273.5 950.0
09/05 16:00 25.2 93 21.65 24 28 39 1009.6 3.8 46.6 45.0 89.7 237.4 265.7 923.1
09/05 15:50 27.6 87 23.15 25.2 22 26 1009.3 0.8 49.5 46.6 94.2 249.6 281.4 977.7
09/05 15:40 26.8 89 22.65 24.8 17 20 1009.2 0.6 48.5 46.1 92.7 245.5 276.2 959.6
09/05 15:30 27.9 78 21.1 23.7 24 32 1009.2 0.2 45.1 42.4 83.8 221.9 247.5 860.2
09/05 15:20 28.8 76 21.6 24.1 20 24 1009.1 0.2 46.1 42.9 85.2 225.6 252.2 876.8
09/05 15:10 29 75 21.55 24.1 24 28 1009.2 0.2 45.9 42.7 84.7 224.4 250.8 871.8
09/05 15:00 29.4 74 21.73 24.3 26 33 1009.1 0.2 46.3 42.9 85.1 225.4 252.2 876.8
09/05 14:50 29.6 71 21.07 23.8 22 26 1009.1 0.2 44.9 41.5 81.8 216.6 241.5 839.4
09/05 14:40 29 73 20.97 23.7 24 28 1009.2 0.2 44.7 41.6 82.0 217.1 241.9 840.8
09/05 14:30 30 71 21.53 24.2 26 39 1009.1 0.2 45.8 42.2 83.5 221.1 247.2 859.3
09/05 14:20 29.4 72 21.14 24 24 28 1009.1 0.2 45.0 41.7 82.3 218.0 243.2 845.3
09/05 14:10 30 76 23.05 25.3 20 24 1009.2 0.2 49.0 45.1 90.8 240.4 270.8 941.3
09/05 14:00 28.9 77 22 24.5 22 37 1009.4 0.2 46.9 43.7 87.0 230.4 258.2 897.5
09/05 13:50 29.4 71 20.85 23.6 26 28 1009.6 0.2 44.4 41.2 81.0 214.5 238.9 830.3
09/05 13:40 29.5 75 22.14 24.6 26 28 1009.7 0.2 47.1 43.6 87.0 230.4 258.4 898.1
09/05 13:30 28.9 76 21.71 24.2 28 35 1009.9 0.2 46.3 43.1 85.7 226.8 253.8 882.0
09/05 13:20 28.9 78 22.29 24.7 30 32 1010.1 0.2 47.5 44.2 88.5 234.2 262.9 913.7
09/05 13:10 29.9 72 21.72 24.3 22 24 1010.2 0.2 46.2 42.6 84.6 224.0 250.6 871.1
09/05 13:00 29.3 73 21.32 24 28 41 1010.5 0.2 45.4 42.2 83.4 220.8 246.5 856.8
09/05 12:50 29.1 75 21.66 24.2 24 28 1010.6 0.2 46.1 43.0 85.2 225.7 252.4 877.4
09/05 12:40 29.3 75 21.9 24.4 30 33 1010.6 0.2 46.6 43.3 86.2 228.1 255.5 888.0
09/05 12:30 29.3 77 22.48 24.8 20 35 1010.7 0.2 47.9 44.4 88.9 235.5 264.6 919.6
09/05 12:20 27.8 85 22.86 25 20 24 1010.9 0 48.9 46.0 92.6 245.3 276.2 959.7
09/05 12:10 28.4 82 22.8 25 24 28 1010.9 0 48.6 45.6 91.6 242.6 273.0 948.7
09/05 12:00 28.3 83 22.95 25.1 17 24 1011.1 0 49.0 45.9 92.5 244.9 275.8 958.5
09/05 11:50 27.6 91 24.21 26 19 22 1011.3 0 51.7 48.9 99.8 264.3 299.3 1040.1
09/05 11:40 26.1 90 22.03 24.3 20 24 1011.5 0 47.3 45.3 90.6 239.9 269.0 934.7
09/05 11:30 26.3 83 20.55 23.2 35 50 1011.7 0 44.1 42.3 83.1 220.0 244.6 849.9
09/05 11:20 29.5 71 20.96 23.7 26 30 1011.5 0 44.6 41.5 81.6 215.9 240.5 836.1
09/05 11:10 29.4 72 21.14 23.8 28 30 1011.6 0 45.0 41.9 82.5 218.4 243.6 846.8
09/05 11:00 28.8 77 21.88 24.4 24 30 1011.8 0 46.6 43.6 86.7 229.6 257.1 893.5
09/05 10:50 27.9 82 22.18 24.5 24 28 1012 0 47.4 44.7 89.2 236.3 265.0 921.0
09/05 10:40 28.7 75 21.2 23.8 22 28 1011.9 0 45.2 42.3 83.6 221.3 246.8 858.0
09/05 10:30 29 74 21.26 23.9 24 35 1012.1 0 45.3 42.3 83.5 221.2 246.8 857.9
09/05 10:20 29.2 74 21.49 24.1 24 28 1012.1 0 45.8 42.6 84.4 223.5 249.7 868.0
09/05 10:10 29.3 74 21.61 24.2 26 30 1012.1 0 46.0 42.8 84.9 224.7 251.2 873.3
09/05 10:00 29 74 21.26 23.9 28 35 1012.2 0 45.3 42.3 83.6 221.2 246.8 858.0

Last Refresh: 10-May-2026 02:35:29

Bureau of Meteorology